Hourly Data Report for September 22, 2017

All times are specified in Local Standard Time (LST). Add 1 hour to adjust for Daylight Saving Time where and when it is observed.

BAS CARAQUET
NEW BRUNSWICK

47°48'08.000" N
64°50'00.000" W
5.00 m
8100467
71598
WXS

Download Data

Hourly Data (September 2017)
Hourly Data Report for September 22, 2017
Temp Definition
°C
Dew Point Temp Definition
°C
Rel Hum Definition
%
Wind Dir Definition
10's deg

Wind Spd Definition
km/h
Visibility Definition
km
Stn Press Definition
kPa
Hmdx Definition


Wind Chill Definition


Weather Definition


TIME
00:00 5.2 4.9 98 14 4   102.32     LegendNANA
01:00 4.6 4.2 97   0   102.34     LegendNANA
02:00 4.7 4.4 98 20 4   102.31     LegendNANA
03:00 4.9 4.7 98 22 3   102.28     LegendNANA
04:00 5.1 5.0 99 21 3   102.26     LegendNANA
05:00 5.3 5.2 99 21 3   102.24     LegendNANA
06:00 7.2 7.2 99 22 5   102.27     LegendNANA
07:00 8.9 8.1 95 23 7   102.24     LegendNANA
08:00 11.9 10.0 88 25 7   102.27     LegendNANA
09:00 14.4 11.5 83 24 6   102.26     LegendNANA
10:00 17.2 11.6 69 27 11   102.21     LegendNANA
11:00 19.0 11.3 61 28 12   102.14     LegendNANA
12:00 19.8 10.5 55 29 13   102.09     LegendNANA
13:00 20.7 10.7 53 29 8   102.01     LegendNANA
14:00 18.7 11.8 64 2 6   101.97     LegendNANA
15:00 20.2 10.7 54 36 4   101.90     LegendNANA
16:00 20.7 11.3 55 2 1   101.86     LegendNANA
17:00 20.0 11.1 56 17 8   101.82     LegendNANA
18:00 17.4 12.0 71 17 8   101.75     LegendNANA
19:00 15.3 11.7 79 18 9   101.75     LegendNANA
20:00 14.9 10.5 75 18 11   101.72     LegendNANA
21:00 14.7 10.1 74 18 11   101.74     LegendNANA
22:00 14.7 9.1 69 19 13   101.68     LegendNANA
23:00 14.1 9.3 73 19 12   101.67     LegendNANA

Notes on Data Quality.

Legend

  • E = Estimated
  • M = Missing
  • NA = Not Available
  • ‡ = Partner data that is not subject to review by the National Climate Archives
Date modified: